Regional Weather Roundup
Issued by NWS Cleveland, OH

Home | Current Version | Previous Version | Graphics & Text | Print | Product List | Glossary On
Versions: 1 2 3 4 5 6 7 8 9 10 11 12 13 14 15 16 17 18 19 20 21 22 23 24 25 26 27 28 29 30 31 32 33 34 35 36 37 38 39 40 41 42 43 44 45 46 47 48 49 50
000
ASUS41 KCLE 300602
RWRCLE
OHIO REGIONAL WEATHER ROUNDUP
NATIONAL WEATHER SERVICE CLEVELAND, OH
100 AM EST FRI JAN 30 2015

NOTE: "FAIR" INDICATES FEW OR NO CLOUDS BELOW 12,000 FEET WITH NO
SIGNIFICANT WEATHER AND/OR OBSTRUCTIONS TO VISIBILITY.

OHZ001>008-015>018-024>027-034-035-043-044-300700-
   NORTHWEST OHIO

CITY           SKY/WX    TMP DP  RH WIND       PRES   REMARKS
DEFIANCE       FLURRIES  32  25  75 NW24G30   30.14R WCI  19
FINDLAY        CLOUDY    32  26  78 W10       30.09S WCI  24
TOLEDO EXPRESS LGT SNOW  28  23  81 N15       30.11R WCI  16
TOLEDO EXEC    CLOUDY    31  19  61 NW17      30.12R WCI  19
LIMA           CLOUDY    33  27  78 W12       30.11R WCI  24
$$

OHZ009>014-019>023-028>033-038-089-300700-
   NORTHEAST OHIO

CITY           SKY/WX    TMP DP  RH WIND       PRES   REMARKS
CLE-HOPKINS    FLURRIES  31  24  75 NW17      30.06R WCI  19
CLE-LAKEFRONT  CLOUDY    32  27  81 NW20      30.03R WCI  20
CUY CO. ARPT   NOT AVBL
LORAIN-ELYRIA  CLOUDY    30  23  75 NW21G26   30.05R WCI  17
ASHTABULA      CLOUDY    30  27  88 W13G23    29.97R FOG     WCI  20
AKRON-CANTON   LGT SNOW  31  27  85 NW13      30.00R FOG     WCI  21
WOOSTER        LGT SNOW  30  27  88 NW14      30.03S FOG     WCI  19
MANSFIELD      FLURRIES  30  27  88 W8G21     30.04R WCI  22
YOUNGSTOWN     LGT SNOW  30  27  88 NW12      29.96R FOG     WCI  20
$$

OHZ042-051>053-060>062-070>072-077>081-300700-
  SOUTHWEST OHIO

CITY           SKY/WX    TMP DP  RH WIND       PRES   REMARKS
CINC-COVINGTON CLOUDY    34  27  75 NW10G31   30.20S WCI  26
CINC-LUNKEN    CLOUDY    34  27  75 VRB7      30.23R WCI  28
HAMILTON       CLOUDY    34  28  79 W9        30.21R WCI  27
DAYTON         CLOUDY    33  30  88 NW12      30.16R WCI  24
WRIGHT-PAT AFB FLURRIES  32  28  86 W7        30.15R WCI  26
DAYTON GENERAL CLOUDY    33  29  85 W12       30.16R WCI  24
WILMINGTON     CLOUDY    32  27  81 NW12      30.15R WCI  23
$$

OHZ036-037-039>041-045>050-054>059-063>069-073>076-082>088-300700-
  CENTRAL AND SOUTHEAST OHIO

CITY           SKY/WX    TMP DP  RH WIND       PRES   REMARKS
COLUMBUS       CLOUDY    32  28  85 NW12      30.10S WCI  23
OSU AIRPORT    CLOUDY    32  26  78 NW14G23   30.11R WCI  22
BOLTON FIELD   NOT AVBL
RICKENBACK AFB NOT AVBL
NEWARK         CLOUDY    33  29  85 NW12      30.08R WCI  24
MARION         MIX PCPN  31  27  85 NW10      30.09R WCI  22
LANCASTER      CLOUDY    33  30  88 NW9       30.10S FOG     WCI  25
ZANESVILLE     CLOUDY    31  28  89 NW9       30.06S FOG     WCI  23
NEW PHILLY     LGT SNOW  32  29  88 NW6       30.04S FOG     WCI  26
$$



USA.gov is the U.S. government's official web portal to all federal, state and local government web resources and services.